Tracking 19817 objects as of 19-Aug-2019
HD Live streaming from Space Station
objects crossing your sky now

COSMOS 2195

Track COSMOS 2195 now!
10-day predictions
COSMOS 2195 is classified as:


NORAD ID: 22006
Int'l Code: 1992-036A
Perigee: 961.1 km
Apogee: 1,016.9 km
Inclination: 82.9 °
Period: 104.7 minutes
Semi major axis: 7360 km
RCS: 2.4537 m2 (large)
Launch date: July 1, 1992
Source: Commonwealth of Independent States (former USSR) (CIS)
Launch site: PLESETSK MISSILE AND SPACE COMPLEX (PKMTR)
aabbcc
Your satellite tracking list
Your tracking list is empty




NASA's NSSDC Master Catalog

Two Line Element Set (TLE):
1 22006U 92036A   19230.81197944 +.00000056 +00000-0 +42923-4 0  9993
2 22006 082.9334 108.2199 0037900 033.6618 037.2458 13.74939840361341
Source of the keplerian elements: AFSPC